Home   Weather   Mesquite   Past weeks

Flag for USA Past Weather in Mesquite, Texas, USA — Yesterday and Last 2 Weeks

Now
46 °F

Overcast.


Feels Like: 45 °F
Forecast: 44 / 49 °F
Wind: 3 mph from Northeast

Location: Mesquite Metro Airport

Current Time: Dec 5, 2016 at 4:40:14 am

Latest Report: Dec 5, 2016 at 4:15 am


Visibility: 10 mi

Pressure: 29.94 "Hg

Humidity: 88%

Dew Point: 43 °F

Location of MesquiteLocation

Past Weather in Mesquite — Graph

°F

Mesquite Temperature Yesterday

Maximum temperature yesterday: 52 °F (at 1:50 pm)
Minimum temperature yesterday: 46 °F (at 6:50 am)
Average temperature yesterday: 48 °F

High & Low Weather Summary for the Past Weeks

 TemperatureHumidityPressure
High73 °F (Nov 21, 1:50 pm)100% (Nov 22, 3:50 pm)30.44 "Hg (Nov 22, 3:50 pm)
Low29 °F (Nov 20, 6:35 am)19% (Dec 1, 1:50 pm)29.46 "Hg (Nov 28, 2:45 pm)
Average52 °F73%30.05 "Hg
* Reported Nov 20 3:15 am — Dec 5 3:15 am, Mesquite, Weather by CustomWeather, © 2016

Note: Actual official high and low records may vary slightly from our data, if they occured in-between our weather recording intervals... More about our weather records

Advertising

Mesquite Weather History for the Previous 24 Hours

Scroll right to see more
 ConditionsComfort  
Time TempWeatherWind HumidityBarometerVisibility
3:15 am
Mon, Dec 5
46 °FPassing clouds.No wind89%30.01 "Hg10 mi
2:55 am46 °FPassing clouds.No wind87%30.00 "Hg10 mi
2:35 am47 °FClear.No wind85%30.01 "Hg10 mi
2:15 am47 °FPassing clouds.No wind86%30.02 "Hg10 mi
1:55 am48 °FOvercast.No wind84%30.03 "Hg10 mi
1:35 am48 °FOvercast.No wind83%30.02 "Hg10 mi
1:15 am48 °FOvercast.No wind84%30.02 "Hg10 mi
12:55 am48 °FOvercast.No wind84%30.05 "Hg10 mi
12:35 am48 °FOvercast.No wind83%30.06 "Hg10 mi
12:15 am48 °FOvercast.No wind84%30.06 "Hg10 mi
11:55 pm
Sun, Dec 4
48 °FOvercast.3 mph84%30.06 "Hg10 mi
11:35 pm48 °FOvercast.No wind80%30.08 "Hg10 mi
11:15 pm48 °FOvercast.No wind84%30.08 "Hg10 mi
10:55 pm48 °FOvercast.No wind81%30.07 "Hg10 mi
10:35 pm48 °FOvercast.No wind82%30.07 "Hg10 mi
10:15 pm48 °FOvercast.No wind80%30.07 "Hg10 mi
9:55 pm48 °FOvercast.No wind80%30.06 "Hg10 mi
9:15 pm49 °FOvercast.3 mph78%30.04 "Hg10 mi
8:55 pm49 °FOvercast.6 mph77%30.04 "Hg10 mi
7:50 pm48 °FOvercast.3 mph82%30.07 "Hg10 mi
6:50 pm50 °FOvercast.7 mph76%30.05 "Hg10 mi
5:50 pm50 °FOvercast.6 mph76%30.03 "Hg10 mi
4:50 pm52 °FOvercast.9 mph77%30.03 "Hg10 mi
3:50 pm52 °FOvercast.12 mph77%30.01 "Hg10 mi
2:50 pm52 °FOvercast.12 mph77%30.02 "Hg10 mi
1:50 pm52 °FMostly cloudy.8 mph77%30.06 "Hg10 mi
11:50 am48 °FMostly cloudy.5 mph94%30.08 "Hg10 mi
10:50 am48 °FOvercast.6 mph94%30.08 "Hg10 mi
8:50 am46 °FMore clouds than sun.7 mph100%30.05 "Hg7 mi
7:50 am46 °FFog.5 mph100%30.02 "Hg4 mi
6:50 am46 °FFog.7 mph100%30.01 "Hg4 mi
6:35 am47 °FLow clouds.6 mph97%30.00 "Hg10 mi
6:15 am47 °FLow clouds.5 mph98%29.99 "Hg7 mi
5:55 am47 °FLow clouds.5 mph97%30.00 "Hg10 mi
5:35 am47 °FLow clouds.3 mph97%30.00 "Hg10 mi
5:15 am47 °FLow clouds.No wind98%29.99 "Hg10 mi
4:55 am47 °FLow clouds.3 mph99%29.97 "Hg7 mi
4:35 am47 °FLow clouds.3 mph98%29.96 "Hg5 mi
4:15 am47 °FLow clouds.No wind98%29.98 "Hg7 mi
Weather by CustomWeather, © 2016

See weather overviewHow to use our weather pages